Simultaneous Nadir Overpasses (SNOs) Predictions

Prediction of SNOs between LANDSAT-8 and METOP-A Satellite Orbit:

Table of predicted SNOs for the next 14.0 days since TLE Epoch: 9/8/2017
Index Date (LANDSAT-8) Time (LANDSAT-8) Lat,Lon (LANDSAT-8) SZA (LANDSAT-8 ) Date (METOP-A) Time (METOP-A) Lat,Lon (METOP-A) SZA (METOP-A ) Distance(km) Time Diff (sec)
1 09/10/2017 06:11:06 81.23, 129.00 78.70 09/10/2017 06:10:13 81.23, 128.85 78.66 2.49 53
2 09/10/2017 07:00:32 -81.25, -63.06 101.25 09/10/2017 07:00:52 -81.25, -63.04 101.24 0.36 20
3 09/13/2017 01:45:20 81.23,-164.58 79.79 09/13/2017 01:44:32 81.23,-164.77 79.74 3.22 48
4 09/13/2017 02:34:46 -81.25, 3.39 100.16 09/13/2017 02:35:11 -81.25, 3.35 100.15 0.74 25
5 09/15/2017 21:19:35 81.23, -98.22 80.88 09/15/2017 21:18:52 81.23, -98.41 80.84 3.23 43
6 09/15/2017 22:09:01 -81.25, 69.77 99.06 09/15/2017 22:09:31 -81.25, 69.71 99.06 1.08 30
7 09/18/2017 16:53:49 81.24, -31.55 82.02 09/18/2017 16:53:11 81.24, -31.70 81.98 2.45 38
8 09/18/2017 17:43:15 -81.26, 136.46 97.92 09/18/2017 17:43:50 -81.26, 136.42 97.91 0.86 35
9 09/21/2017 12:28:02 81.25, 35.05 83.16 09/21/2017 12:27:29 81.24, 34.99 83.13 1.12 33




NCC Satellite Simultaneous Nadir Overpasses (SNOs) Prediction Service
